Theta_e
314 314 314 314 314 315 315 316 317 319 320 321 321 321 324 327 324 321 328 331 326 328 331 330 333 337 335 335 336 334 332 336 339 340 340 336 334 340 346 351 356 356 359 361 362 361 360 358 357 357 358 358 358 358 358 358 359 359 360 360 361 363 363 362 364 365 365 364 363 363 363 363 362 361 360 360 360 360 360 359 358 357 357 357 360 361 361
313 312 313 313 313 314 315 315 317 318 319 320 321 323 324 325 325 326 329 331 330 331 332 335 338 338 335 335 336 336 338 344 345 346 344 337 335 337 340 347 355 357 358 361 363 363 362 359 357 357 358 358 357 358 358 358 358 359 360 361 361 362 363 364 365 365 365 365 364 363 364 363 363 363 361 361 361 361 361 360 359 359 358 358 358 360 361
314 313 314 314 313 315 315 314 316 317 319 320 320 321 323 323 325 328 330 329 328 328 336 342 343 338 336 336 337 343 348 350 352 351 348 346 347 348 347 347 350 353 358 360 363 364 362 360 357 357 357 358 358 358 359 358 358 359 359 361 362 362 363 364 364 365 366 365 364 364 364 364 364 364 362 362 362 362 361 361 361 361 361 360 359 359 360
313 313 314 314 314 315 315 314 316 317 318 320 320 320 324 325 326 330 329 325 328 333 341 345 344 339 337 337 341 349 353 354 356 356 354 356 357 356 357 357 354 351 351 357 362 362 360 358 357 356 357 358 359 357 359 358 358 359 360 361 363 363 364 364 365 367 366 365 365 365 365 365 365 364 364 363 363 363 362 362 362 362 361 361 361 360 359
311 312 313 314 315 316 316 316 317 317 319 320 319 325 335 336 333 332 329 328 335 342 342 343 345 345 346 347 348 353 357 357 357 356 356 357 358 358 360 363 361 356 349 351 357 360 360 358 357 356 357 357 358 358 358 359 359 359 359 361 363 363 364 365 366 366 366 366 365 365 365 365 365 365 364 364 364 364 363 363 363 362 362 361 361 361 360
312 312 313 316 317 317 319 321 320 320 320 320 321 330 339 340 337 334 334 337 340 341 339 341 344 346 349 351 352 353 355 357 357 356 356 357 358 359 360 360 362 360 352 347 352 360 360 357 355 355 356 358 358 358 359 359 358 359 360 362 364 364 364 365 367 366 366 366 366 366 366 365 366 365 364 365 364 363 364 364 363 363 363 362 363 362 361
311 311 314 318 319 319 321 325 326 324 321 320 327 335 337 336 335 336 337 338 337 336 337 339 341 343 345 348 351 351 352 354 355 355 356 356 357 358 360 361 363 362 356 346 347 356 359 357 355 357 356 357 358 359 360 360 359 360 361 362 364 364 364 365 366 366 366 367 366 366 366 366 366 365 365 365 364 364 363 363 363 364 363 363 363 363 362
311 311 314 318 320 320 324 327 327 328 329 329 334 336 334 332 333 334 334 335 334 333 335 337 339 342 344 346 350 350 351 352 352 352 353 355 356 357 358 359 361 363 360 348 343 350 358 356 354 356 356 357 357 358 359 360 359 361 362 363 365 365 364 365 366 366 366 366 366 366 366 365 365 365 365 365 365 364 363 362 363 364 363 363 363 363 363
311 312 314 317 319 320 324 328 328 329 332 332 334 338 335 330 329 330 332 333 332 331 333 335 337 342 346 349 351 350 349 349 348 349 351 352 353 355 356 358 362 363 358 350 345 349 355 355 353 355 357 357 357 358 360 360 360 362 363 364 365 365 364 365 365 365 365 365 365 365 365 365 365 365 365 365 364 364 363 362 361 362 363 363 363 362 362
311 312 314 318 319 320 324 328 327 327 329 329 331 337 336 329 326 327 329 330 329 328 329 332 337 344 350 353 352 347 344 343 344 346 348 350 352 354 356 360 361 357 353 351 349 351 356 355 354 355 356 356 356 360 361 360 362 363 363 363 364 364 365 364 365 365 364 365 365 365 366 365 365 365 365 364 365 364 363 362 361 361 362 363 362 362 361
311 312 315 317 319 323 328 328 325 325 328 328 329 336 337 329 325 325 326 326 326 325 325 330 338 349 354 354 349 341 338 338 341 343 347 350 352 355 358 360 360 355 352 351 350 353 357 356 355 357 357 357 358 361 361 361 361 362 362 363 364 364 363 364 363 364 364 364 364 365 365 365 365 365 365 364 364 364 363 363 361 360 361 362 362 362 361
311 313 315 316 318 324 327 325 324 324 325 328 333 340 336 327 323 323 324 324 324 322 324 328 335 341 346 345 338 332 332 336 339 343 348 350 352 355 358 360 360 356 353 354 354 355 356 355 356 358 357 357 359 362 362 361 360 361 361 361 363 364 363 363 364 364 364 364 364 365 364 365 364 365 364 363 364 363 363 362 362 361 361 361 362 363 362
311 312 314 315 318 324 325 323 323 324 326 332 338 337 331 325 322 322 322 322 322 321 322 326 328 329 329 329 327 326 328 334 338 343 348 351 352 355 357 358 360 359 355 356 357 355 355 356 358 359 357 358 361 361 361 361 360 360 360 361 362 362 363 363 363 363 363 364 364 364 364 364 365 364 364 363 363 363 363 362 362 362 361 361 362 362 362
310 312 314 315 318 322 322 322 323 324 329 337 335 328 324 322 320 320 320 320 320 320 320 322 324 323 322 321 323 323 327 334 339 341 345 349 351 354 356 357 360 360 357 356 356 355 357 359 358 359 358 360 363 363 362 362 362 360 360 362 362 363 363 363 363 363 363 363 364 364 363 365 365 364 364 363 363 363 363 363 363 363 363 363 363 362 363
311 312 313 316 320 321 319 321 323 324 327 329 324 322 322 321 319 320 319 318 318 319 320 319 320 320 319 319 321 322 326 333 338 338 341 346 348 351 355 356 358 361 360 358 356 355 359 359 358 359 360 362 364 364 363 363 362 360 361 363 363 364 364 363 363 363 363 364 364 363 363 365 365 366 364 364 363 364 364 364 364 364 364 364 363 363 363
312 314 316 318 319 319 318 320 322 321 320 320 319 320 321 319 318 319 319 317 317 318 319 319 318 318 318 318 319 320 324 331 336 337 339 343 345 349 354 356 358 359 361 361 358 356 358 358 358 359 360 363 365 365 365 364 362 361 363 364 365 366 365 364 365 365 365 365 365 364 364 365 366 366 366 366 365 366 366 365 365 364 364 364 363 364 363
315 316 317 317 316 315 316 317 318 317 316 317 317 318 318 317 317 318 318 318 318 317 318 319 318 317 316 317 319 319 322 329 335 336 337 341 343 346 352 356 358 359 360 362 362 360 358 357 358 359 361 364 366 366 366 365 362 362 365 367 367 368 366 366 366 365 366 366 366 366 365 366 366 368 368 367 367 367 366 366 364 364 364 365 364 365 364
315 315 315 315 314 314 315 315 316 316 316 316 316 316 316 316 316 317 318 318 318 318 318 319 320 319 317 317 319 319 320 326 333 335 336 339 341 343 348 353 357 359 359 360 363 363 363 361 360 360 361 365 366 367 366 366 365 366 369 370 369 368 368 367 367 367 367 367 368 368 367 367 368 369 368 368 368 368 367 366 364 364 365 365 365 365 366
313 315 316 315 314 314 315 315 315 316 316 316 316 316 316 315 315 316 317 317 318 318 317 318 320 320 317 317 319 320 320 324 331 334 335 337 340 342 345 350 354 356 359 360 362 363 363 363 363 363 363 364 365 367 367 367 366 367 369 370 369 368 369 368 367 368 368 367 368 369 367 368 369 369 369 368 369 368 367 365 365 365 366 365 366 366 366
313 315 315 314 313 314 316 317 317 316 316 316 315 315 315 315 316 316 316 316 317 317 317 318 319 319 318 318 319 320 321 324 330 333 334 336 339 340 343 347 351 353 355 358 361 362 362 363 364 365 366 366 366 368 367 364 364 367 368 369 368 369 368 368 368 368 368 367 368 369 369 368 369 370 369 369 369 369 368 367 367 367 366 367 367 366 367
313 315 314 313 314 316 318 317 316 316 315 315 315 314 314 315 316 316 316 316 317 317 316 317 318 320 319 319 319 320 322 325 328 331 333 336 337 338 341 345 348 351 352 354 356 358 360 361 362 364 365 366 367 367 367 366 366 368 368 367 367 368 368 368 369 369 368 367 367 368 369 370 368 368 369 368 369 369 369 368 368 367 366 367 366 366 366
314 315 313 312 313 316 316 315 315 315 314 314 314 315 315 315 315 315 316 316 317 317 317 317 318 319 319 318 318 319 322 325 328 330 333 336 337 337 339 341 343 347 350 351 353 354 356 358 360 361 363 365 366 367 368 369 369 369 369 368 367 368 368 369 369 369 369 368 367 367 369 370 368 364 363 365 367 368 369 369 369 367 366 367 368 368 367
313 312 311 311 312 313 313 313 313 313 313 313 314 315 315 316 315 315 316 317 317 317 317 318 319 318 318 318 318 319 321 323 327 329 332 335 337 336 336 338 340 343 345 348 350 351 353 354 357 357 359 362 363 366 368 370 370 371 370 368 368 368 369 369 369 370 370 370 369 368 369 371 370 364 362 362 363 364 365 367 367 368 367 366 367 367 367
311 311 310 310 310 311 312 312 312 313 314 315 315 315 316 317 316 316 316 316 316 317 317 318 319 319 318 318 318 319 320 322 325 328 329 332 335 335 335 337 338 339 341 345 347 349 351 352 354 355 356 358 359 363 366 368 371 372 371 371 371 370 370 371 370 370 369 370 371 370 370 371 370 368 365 363 361 360 361 363 365 366 365 365 365 365 366
310 310 309 309 310 311 311 312 313 313 315 316 316 316 317 317 318 318 317 317 317 317 317 318 319 319 319 318 317 319 320 322 324 326 327 329 332 333 335 337 338 338 339 341 343 345 348 350 352 353 353 354 356 358 361 365 368 370 371 371 371 371 371 371 370 370 369 370 370 369 368 368 368 368 367 365 364 360 356 355 359 361 361 362 362 362 363
310 309 309 309 310 310 311 312 313 313 313 316 317 317 317 318 318 318 317 317 318 318 318 319 320 319 319 318 318 319 320 321 323 325 326 327 328 330 333 336 337 337 338 339 340 342 345 348 351 352 352 353 353 354 357 361 364 366 368 370 370 370 371 370 369 369 368 368 367 367 367 366 365 365 364 365 365 361 355 354 355 354 354 356 357 358 359
309 309 309 309 310 310 310 311 312 312 313 316 317 316 317 317 318 318 317 317 317 318 318 320 320 319 319 318 318 319 320 319 321 323 325 326 327 327 329 332 334 335 336 337 338 340 342 345 348 349 350 350 351 352 354 357 360 362 364 366 367 367 367 368 368 368 367 367 367 367 366 365 364 364 364 364 364 361 359 358 354 347 345 348 351 352 355
309 309 309 310 310 310 310 311 312 312 313 315 316 316 316 316 316 317 317 316 316 317 318 319 319 318 319 319 319 320 321 319 320 322 325 326 326 327 327 329 330 332 334 336 336 337 340 342 344 345 346 347 349 350 352 354 357 358 359 361 362 364 365 366 366 365 366 367 368 366 366 365 365 365 365 365 363 360 358 354 347 340 337 338 340 344 348
308 308 309 309 309 309 310 311 311 312 312 314 316 317 315 314 315 316 316 315 316 317 318 317 317 317 318 320 320 320 320 320 320 322 324 325 326 326 326 327 328 329 331 333 334 335 337 339 340 341 342 344 346 348 349 351 353 354 354 354 355 356 360 362 364 365 366 366 366 364 365 364 365 365 364 362 361 356 350 344 339 336 333 332 333 336 338
307 308 308 308 308 309 309 310 310 310 311 312 315 316 315 314 314 315 315 315 316 317 317 318 318 317 318 319 318 318 320 321 321 322 323 325 326 327 327 327 328 328 329 330 331 333 334 336 337 338 338 340 343 346 348 349 350 351 351 349 347 346 350 355 359 363 363 362 360 361 362 362 362 362 361 359 355 349 343 339 337 337 335 334 334 334 332
307 308 308 308 308 309 309 309 309 310 310 311 313 315 315 315 314 315 314 315 315 316 317 317 318 317 317 316 316 317 320 321 322 323 325 325 325 326 327 328 328 328 329 329 329 331 332 333 334 335 336 337 339 342 345 347 348 348 349 349 346 345 346 349 352 357 358 358 357 358 358 359 359 357 354 352 348 344 341 340 340 340 339 337 337 335 333
308 308 308 308 308 308 308 308 309 309 310 311 312 314 316 316 315 314 314 314 315 315 315 315 316 317 317 317 317 319 320 322 322 324 325 325 324 324 325 326 327 328 328 328 328 328 330 331 332 333 334 335 337 339 341 344 346 347 347 347 346 345 344 346 349 352 353 354 355 355 355 354 353 352 349 346 343 341 340 340 340 341 340 338 336 335 335
308 309 309 309 308 308 309 308 308 309 310 311 312 313 314 316 316 315 314 314 315 315 315 316 316 317 318 319 320 321 321 323 324 324 323 323 322 322 323 324 326 327 327 326 326 327 327 328 329 330 332 333 335 336 338 340 342 345 345 345 345 344 343 343 344 347 348 348 348 349 349 348 347 346 343 341 341 340 339 338 337 337 336 335 334 334 334
308 309 309 309 309 309 309 309 309 309 310 311 311 312 313 315 316 317 317 316 316 316 317 317 318 319 320 321 321 321 321 321 322 321 320 320 320 321 322 323 325 326 326 325 323 323 325 325 325 327 329 331 333 334 335 336 338 340 342 343 343 342 341 340 340 340 340 340 340 340 340 339 340 339 337 337 338 338 337 335 334 332 331 330 331 331 332
308 308 308 309 309 309 309 309 309 309 310 310 311 311 312 313 315 316 317 318 317 318 318 319 319 319 320 320 320 320 320 319 319 318 318 318 319 319 320 321 322 323 324 323 320 319 321 322 322 324 327 329 330 331 331 333 335 336 337 339 338 337 336 336 336 335 335 334 333 332 332 331 332 332 332 333 333 333 332 331 330 329 327 326 326 328 329
308 308 308 308 309 309 309 309 309 309 309 310 310 311 311 312 313 315 315 316 316 317 318 318 318 318 318 318 317 317 317 317 317 317 317 317 317 317 318 319 319 320 321 320 317 317 319 320 321 323 325 327 327 327 328 330 333 334 335 336 336 334 332 331 331 331 330 329 328 326 326 326 326 326 326 327 327 327 327 326 326 326 326 324 324 324 324
308 308 308 308 308 309 309 308 308 308 309 309 310 310 311 311 312 313 314 314 315 315 316 316 316 316 316 316 315 315 315 315 316 316 316 316 316 315 315 316 316 317 318 318 316 316 317 318 319 321 322 323 324 324 324 326 330 332 333 333 332 331 329 328 327 327 327 326 325 324 323 322 322 322 322 322 322 321 321 321 321 321 322 322 322 321 321
309 308 308 308 308 308 308 308 308 308 308 309 309 310 310 310 310 310 311 312 313 313 314 314 314 314 314 314 314 314 314 314 315 315 315 316 315 314 314 314 314 315 316 316 315 316 316 317 317 318 319 320 321 321 321 324 327 329 329 329 329 327 326 325 324 323 323 323 322 322 321 320 319 318 317 317 316 316 316 316 315 315 315 316 316 316 316
309 308 308 308 307 308 308 308 307 308 308 308 309 309 309 309 309 309 309 310 311 311 312 312 313 313 313 313 313 312 312 313 313 314 314 315 314 314 313 313 313 313 313 313 313 314 315 315 315 316 316 317 317 318 318 320 323 323 324 324 324 323 322 322 320 319 319 319 318 318 318 317 317 316 314 314 314 313 313 312 312 311 311 311 311 311 311
309 308 308 308 307 307 308 308 308 308 308 308 308 308 308 308 308 308 308 308 309 309 310 310 311 311 311 312 311 311 311 311 312 312 313 313 313 313 312 312 311 312 312 312 312 313 313 314 314 313 313 314 314 315 315 316 318 318 318 319 319 318 318 318 317 316 315 315 315 315 314 314 314 313 313 312 312 311 311 310 310 309 309 309 308 308 308
310 308 308 307 307 307 307 307 307 307 307 307 307 307 307 307 307 307 307 307 307 307 308 308 309 309 310 310 310 311 311 311 311 311 311 312 312 312 312 311 310 311 311 311 311 311 311 312 312 312 312 312 312 312 312 313 314 314 314 314 313 313 313 313 312 312 311 311 311 311 311 311 311 311 311 311 310 309 309 308 308 308 307 307 307 307 307
309 309 308 307 307 307 307 306 307 307 307 307 307 307 307 307 307 306 306 306 306 307 307 307 307 308 308 309 309 310 310 310 310 310 310 310 311 311 310 310 309 309 310 310 309 309 309 310 310 310 310 310 310 310 310 310 310 310 310 310 310 310 310 310 309 309 309 308 308 309 309 309 308 308 308 308 307 307 307 307 306 306 305 306 305 306 305
309 309 308 307 307 307 307 306 306 306 306 306 306 306 306 306 306 306 306 306 306 306 306 306 306 306 306 307 308 308 309 309 310 310 309 309 309 309 309 309 309 308 308 308 308 307 307 308 308 309 309 308 308 308 308 308 308 308 308 308 308 307 307 307 307 307 307 306 306 306 306 307 307 307 306 306 305 305 305 305 305 304 304 304 305 305 305
308 308 308 307 307 306 306 306 306 306 306 306 306 306 306 305 306 306 306 305 305 305 305 305 306 306 306 306 306 307 307 308 309 309 309 309 309 308 308 308 308 307 307 307 306 306 306 306 306 307 307 307 307 306 307 307 307 307 306 306 306 305 305 304 304 304 304 304 303 303 303 303 304 304 304 303 303 303 303 303 303 303 303 303 303 303 303
308 307 308 308 308 307 307 307 307 306 306 305 305 305 305 305 305 305 305 305 305 305 305 305 305 306 306 306 306 306 306 306 307 308 308 308 308 308 307 307 307 306 306 306 305 305 305 305 305 305 305 305 305 305 305 305 306 306 306 306 305 305 305 304 303 303 302 302 302 301 301 301 301 301 301 301 301 301 301 301 301 301 300 300 301 301 301
309 309 309 309 309 308 308 307 306 306 305 305 305 305 305 305 305 304 304 305 305 304 304 304 304 305 305 305 305 305 305 306 306 306 307 307 307 307 307 306 306 306 305 305 304 304 304 304 304 304 304 304 303 303 303 303 304 304 305 305 305 304 304 304 303 303 302 302 301 301 301 301 301 300 300 300 300 300 300 300 300 299 300 300 300 300 300
308 309 309 308 309 309 308 307 306 306 306 306 306 306 305 305 305 304 304 304 304 304 304 304 304 304 304 304 305 305 305 305 305 305 306 306 306 306 306 306 306 305 305 304 304 303 303 303 303 302 303 303 303 302 302 301 301 301 302 302 302 302 302 302 302 303 302 302 302 301 301 301 301 300 300 300 300 300 300 299 299 299 299 298 298 299 299
307 308 308 309 309 309 308 308 307 306 306 306 306 305 305 305 305 304 304 304 304 304 304 304 304 304 304 304 304 304 305 305 305 305 305 305 305 305 305 305 304 304 304 304 303 302 301 301 302 302 302 301 301 301 301 301 300 300 300 300 300 300 301 301 301 302 302 301 301 301 301 301 300 300 300 300 300 299 299 299 299 298 298 298 298 298 298
305 306 308 308 308 307 307 307 306 306 306 306 306 305 305 305 304 304 304 304 303 303 303 303 303 304 304 304 304 304 304 304 304 304 304 304 304 304 304 304 302 301 301 302 302 301 299 299 300 301 301 302 301 301 301 301 301 301 300 300 300 300 300 300 301 301 301 301 300 300 300 300 300 300 299 299 299 299 298 298 298 297 297 297 297 297 296
305 306 307 307 307 307 306 306 306 305 305 306 305 304 304 304 304 304 304 304 303 303 303 303 303 303 303 303 304 304 304 304 304 304 303 304 303 303 304 303 302 301 299 299 300 299 299 299 299 299 299 300 301 301 301 301 301 301 301 301 301 301 301 300 300 300 300 300 300 300 300 300 299 299 299 299 299 298 298 298 298 298 298 297 297 297 297
305 305 306 306 306 306 306 306 305 305 305 306 305 304 304 304 303 303 303 303 303 303 303 303 303 303 303 303 303 303 303 303 304 304 303 303 303 303 303 303 303 302 301 300 299 299 299 299 299 299 298 298 299 299 300 299 299 299 300 300 300 300 300 300 300 300 300 300 300 300 299 299 299 299 299 299 299 299 298 298 298 298 298 298 297 297 297
303 304 306 306 306 305 305 305 305 305 305 305 305 304 304 303 303 302 303 303 303 303 303 303 303 302 302 303 303 303 303 303 303 303 303 303 302 302 302 302 303 302 302 302 301 300 299 298 298 298 298 298 298 298 298 298 298 298 298 298 298 298 298 298 298 298 299 299 299 299 299 298 299 299 299 299 298 298 298 298 298 298 298 298 297 297 297
Wind_Speed
19 18 16 14 12 11 12 12 11 9 8 10 12 15 16 11 8 9 8 7 10 11 9 7 6 8 9 8 9 9 7 5 5 4 3 5 5 7 11 13 15 16 16 16 17 18 21 25 28 27 27 28 29 29 31 32 32 32 32 32 32 31 31 31 31 31 31 30 29 28 27 27 26 26 25 25 25 24 23 23 23 23 23 22 21 21 21
18 19 17 15 14 13 14 14 14 13 11 12 12 13 14 13 11 10 8 9 10 9 7 9 10 12 13 11 11 11 9 8 8 7 7 7 6 4 6 11 14 16 17 17 18 18 20 23 27 27 27 28 30 30 31 32 33 32 32 32 33 32 31 31 30 30 30 29 28 28 28 27 27 26 25 25 25 25 24 23 23 22 22 22 22 21 20
14 18 17 16 15 14 15 16 16 15 14 13 13 12 12 13 12 11 10 11 12 10 7 10 10 11 12 13 12 11 9 9 10 10 10 9 8 7 5 6 10 13 16 17 18 18 20 24 28 29 28 29 31 30 31 32 33 33 33 33 33 33 31 30 29 29 29 28 28 28 28 27 27 27 26 25 25 25 24 23 22 22 22 22 22 21 20
11 14 15 16 15 15 17 18 17 17 15 13 12 11 11 13 13 12 12 12 10 8 8 9 9 10 12 13 12 11 9 10 11 11 12 12 11 11 9 7 7 10 13 16 18 19 22 26 29 30 29 29 30 31 32 34 34 33 33 32 32 31 30 29 29 29 29 28 28 28 28 27 27 27 26 25 25 25 24 23 22 21 21 22 22 21 20
9 12 14 14 12 13 14 14 16 18 16 13 13 11 6 6 9 10 10 7 3 5 9 9 8 9 11 11 10 10 10 11 12 12 13 14 14 14 13 11 10 11 12 13 17 20 23 27 31 33 32 31 32 33 33 33 32 32 32 31 30 30 29 29 29 29 28 28 28 28 28 27 26 26 26 26 25 25 24 23 22 21 21 21 21 21 21
9 12 13 10 12 14 10 7 11 17 18 18 15 9 5 3 4 5 6 5 5 8 9 10 10 10 12 12 10 9 8 9 11 13 14 15 15 15 14 14 13 12 12 13 16 21 25 29 32 33 32 30 29 29 30 30 31 31 30 29 28 29 29 29 29 29 28 28 28 27 27 26 26 26 27 27 26 24 23 22 22 22 22 21 21 22 22
8 10 9 9 13 12 5 2 6 11 16 16 9 6 5 2 2 4 6 7 7 9 10 10 10 11 13 13 13 11 8 8 11 13 14 15 16 16 15 15 15 13 13 14 16 20 26 29 30 30 30 28 27 28 29 30 31 30 29 28 27 28 28 28 28 28 28 28 27 27 26 26 26 26 26 26 25 24 23 22 22 22 22 22 22 22 22
7 8 8 9 9 7 5 4 4 4 8 11 12 9 4 1 1 3 5 6 7 10 10 10 10 11 12 13 13 11 7 8 10 13 14 15 16 17 16 16 16 15 15 17 18 21 24 26 27 29 30 30 28 28 29 30 30 29 28 27 26 27 28 28 28 29 29 28 28 27 27 27 27 27 26 25 25 24 22 22 21 21 21 22 22 22 23
7 8 8 8 9 9 8 7 4 2 3 6 7 5 3 3 2 2 3 4 7 10 11 11 11 10 10 11 10 4 6 9 11 13 14 16 17 17 17 18 19 19 19 19 20 20 22 25 27 28 29 29 29 28 28 29 29 29 28 27 27 27 28 28 29 29 29 28 27 27 26 27 27 26 25 25 24 24 23 22 22 21 21 22 23 24 24
7 8 8 8 10 10 6 4 1 1 1 1 2 3 4 2 2 3 4 5 7 10 12 14 13 10 10 10 5 5 12 14 13 14 15 15 16 17 17 18 20 19 18 18 18 20 22 25 27 27 28 29 29 28 27 28 29 28 28 28 27 27 28 28 28 28 28 28 27 27 26 26 26 26 25 25 25 24 24 24 23 22 22 22 22 23 24
8 8 7 7 9 5 2 3 2 2 2 2 3 6 5 0 3 5 5 6 8 10 11 13 11 6 8 6 2 11 17 17 15 15 15 14 15 17 17 17 17 16 14 15 17 19 22 25 26 28 29 30 29 27 27 28 28 27 28 28 28 28 28 27 27 27 27 27 27 27 27 26 26 25 25 24 24 23 23 23 23 22 22 21 21 22 22
9 10 8 7 8 3 3 6 7 5 4 2 6 8 4 2 4 5 6 7 9 10 10 9 8 4 3 5 8 15 18 18 16 15 13 12 14 15 15 16 16 13 10 13 16 19 23 25 27 29 30 30 28 26 27 27 27 28 29 29 28 27 26 26 26 26 26 27 27 27 26 26 25 24 24 23 22 22 22 22 21 21 22 21 21 21 21
10 11 9 7 7 1 6 10 8 6 4 6 8 5 2 5 5 5 7 8 9 10 10 7 6 6 7 9 12 16 17 16 16 14 12 12 13 14 15 14 12 9 9 13 15 18 22 24 26 28 29 28 26 26 27 27 28 29 28 27 26 25 25 26 26 26 26 26 27 26 24 24 24 24 23 23 22 22 21 21 21 21 21 21 20 20 20
10 9 8 8 6 3 11 13 7 4 4 6 4 1 4 6 6 7 7 8 9 10 10 8 7 9 11 12 14 15 16 15 15 14 12 12 12 14 14 11 9 6 7 12 15 18 20 23 26 28 28 26 24 25 26 27 28 27 25 25 26 25 26 26 26 26 25 25 25 24 23 23 23 23 23 22 21 21 20 20 20 20 19 19 19 18 18
8 8 8 8 5 5 14 14 6 3 2 0 2 2 3 6 7 7 7 8 9 9 10 10 10 12 13 13 15 16 15 14 14 14 13 12 13 14 13 10 8 6 4 9 13 17 20 22 25 26 26 25 23 24 26 25 25 25 24 25 26 25 25 26 25 25 25 24 24 23 23 23 23 22 22 21 20 20 20 19 19 19 19 19 19 19 19
7 9 6 3 3 5 11 10 4 4 4 4 5 4 3 5 6 5 5 7 8 9 10 11 12 12 12 14 16 16 15 14 15 14 13 13 13 13 14 12 10 6 2 5 9 13 17 20 21 22 23 23 21 22 23 22 23 24 23 24 24 24 24 25 24 24 24 24 23 22 22 23 22 21 22 21 20 20 20 19 19 20 20 20 20 20 20
4 5 3 4 6 6 7 5 3 2 3 4 6 6 5 4 4 4 4 6 8 9 10 11 12 12 13 15 15 15 14 14 15 15 14 14 15 15 16 17 15 8 1 3 3 6 11 15 16 18 19 20 19 18 19 20 23 23 22 22 23 23 23 23 23 23 22 22 22 22 22 23 23 22 22 21 21 20 20 21 21 20 19 20 20 19 19
6 6 5 5 7 8 7 3 1 1 1 3 6 6 6 5 5 5 5 5 7 9 10 10 10 11 14 15 15 14 14 14 15 15 14 15 17 17 18 19 18 12 4 3 4 5 6 8 10 12 14 15 15 16 16 19 21 21 20 21 22 21 22 22 22 22 22 21 21 22 22 22 22 21 22 21 21 21 21 21 21 20 20 20 20 20 19
4 3 2 3 9 11 7 4 2 1 2 3 6 7 7 7 7 7 7 6 8 9 9 10 10 11 13 15 14 14 13 13 15 16 15 16 17 17 19 20 19 16 11 7 5 6 6 6 6 8 9 11 12 14 15 17 19 19 19 20 20 20 20 21 21 22 21 21 21 21 22 22 21 21 21 21 21 21 21 21 21 21 20 20 20 20 19
4 4 4 7 11 10 6 5 3 3 5 7 8 8 8 8 9 9 8 7 8 8 9 10 11 11 13 14 14 13 12 12 13 14 14 15 17 19 21 22 21 19 17 15 12 10 9 7 6 6 6 7 10 12 13 15 16 17 17 18 18 19 19 19 19 20 20 20 20 20 20 21 20 19 21 21 21 21 22 21 21 21 22 21 21 20 20
5 5 6 10 10 4 4 2 4 6 8 10 11 9 9 9 10 10 9 8 8 9 10 10 11 12 12 14 15 14 12 12 13 13 13 15 18 20 21 20 20 19 18 18 17 16 14 12 10 9 8 7 7 8 9 11 13 14 16 17 17 17 18 18 17 18 19 19 19 18 18 19 18 17 19 20 20 20 20 21 22 21 21 21 21 21 21
3 3 6 9 8 4 4 7 10 11 11 12 12 11 10 9 10 11 11 10 9 9 10 10 11 11 12 14 15 14 13 12 13 13 14 16 19 21 21 19 20 20 20 20 20 19 18 16 15 14 13 10 7 5 6 9 12 13 14 15 15 16 16 16 16 16 17 18 18 17 17 17 16 16 17 17 18 18 17 19 23 23 19 18 17 17 18
5 7 9 8 7 7 9 11 13 13 12 12 12 11 10 10 10 11 11 11 10 9 9 10 10 11 12 14 15 14 13 14 15 17 18 17 16 17 19 20 20 20 20 20 21 20 19 18 17 16 16 15 12 9 5 4 9 13 13 13 14 14 14 14 15 15 14 14 15 16 16 15 14 15 15 14 15 17 15 14 19 23 22 20 17 15 14
7 8 9 9 8 8 10 12 14 13 11 10 11 11 9 9 9 10 10 10 10 9 9 9 10 11 12 13 14 14 14 16 18 20 21 19 16 16 19 20 20 20 20 19 19 19 19 18 17 17 17 16 15 11 9 6 3 10 13 12 12 12 12 13 13 13 13 13 13 14 16 13 11 13 15 12 11 14 14 12 14 18 22 22 20 18 17
7 8 11 11 9 8 9 10 11 10 9 10 11 10 9 9 8 8 9 9 9 9 9 8 9 11 12 13 15 15 15 16 18 20 21 21 20 20 21 21 20 19 18 18 18 19 18 17 18 17 17 18 18 14 11 9 6 4 9 11 11 11 12 12 11 12 13 13 13 13 15 14 12 14 17 15 12 11 11 10 11 13 15 18 19 19 19
8 10 12 10 6 6 9 9 8 10 12 12 11 10 10 9 8 8 8 8 9 9 8 7 9 11 13 14 15 16 16 17 18 19 19 20 21 22 22 21 20 19 18 18 20 21 20 18 18 18 18 18 18 16 14 12 10 7 5 7 7 6 8 9 11 12 11 11 12 13 14 14 14 15 16 16 13 10 10 9 9 7 6 9 12 15 16
8 10 12 10 7 10 13 11 10 11 12 12 11 10 9 9 7 6 7 8 9 9 8 7 8 10 11 13 14 15 16 17 17 17 18 19 19 20 21 21 21 21 20 19 20 21 21 20 18 19 19 20 18 16 14 13 11 9 5 4 5 5 5 7 8 9 9 10 11 11 12 13 14 14 14 13 10 9 9 10 8 7 4 2 3 6 9
9 9 10 9 10 12 14 12 11 11 11 12 13 10 8 7 6 6 6 7 7 7 6 6 7 9 10 12 13 13 15 16 16 16 17 19 18 18 19 20 21 21 20 19 20 22 22 21 20 19 20 20 19 17 15 13 12 10 8 4 3 4 5 6 6 8 8 8 8 9 10 11 12 11 11 10 10 9 9 9 12 13 11 11 11 9 7
12 10 10 9 10 11 11 11 12 12 13 14 15 10 6 6 6 5 5 5 5 4 3 3 6 8 10 11 13 12 11 13 15 16 17 17 18 18 18 17 17 18 19 20 22 23 22 21 21 21 21 22 20 18 16 14 13 13 12 11 9 7 5 2 2 5 7 6 7 9 10 10 10 10 10 10 11 12 12 13 15 14 13 15 17 17 17
13 11 11 11 12 13 13 12 13 14 14 15 15 11 6 4 5 5 3 3 3 3 1 1 4 7 9 11 12 12 11 12 14 16 17 17 17 17 18 17 16 15 17 19 21 22 22 21 21 21 22 22 20 18 17 15 14 13 13 14 15 14 12 8 4 3 6 7 7 9 10 9 9 10 11 12 12 14 15 15 16 16 15 15 15 18 20
13 12 12 13 13 14 14 13 13 14 14 14 14 13 9 6 3 3 2 1 1 1 1 2 3 5 7 9 11 11 10 11 13 14 15 16 16 16 17 17 16 14 14 17 19 20 20 21 21 21 22 22 21 19 17 15 14 13 12 13 13 13 12 10 7 4 5 7 7 8 7 7 8 10 12 14 15 16 17 17 16 16 16 16 15 17 20
15 14 14 15 14 15 15 14 13 15 15 14 14 13 11 9 5 2 2 1 2 2 1 1 2 4 6 8 9 9 9 10 11 12 13 15 16 16 16 16 16 15 14 16 18 18 19 20 20 20 21 22 21 20 18 16 14 13 12 11 11 11 11 10 8 5 5 5 6 7 6 6 8 10 12 14 15 15 17 18 17 16 17 17 17 19 21
15 14 14 15 15 15 16 16 15 15 15 14 13 12 11 11 8 3 1 2 2 3 2 2 2 4 5 7 8 7 8 8 8 9 11 13 15 16 16 15 14 14 15 16 17 17 17 18 18 18 19 20 20 19 19 18 15 13 12 10 9 10 11 12 11 10 9 9 8 8 8 8 9 10 11 12 13 14 16 18 18 18 17 17 17 18 19
13 12 12 13 13 13 14 14 13 13 13 13 12 11 11 12 12 8 5 3 1 1 1 1 1 2 3 4 5 6 7 7 6 7 10 12 13 14 15 15 13 13 13 16 19 19 18 18 18 18 17 18 18 18 18 17 15 13 12 11 10 9 9 10 11 11 10 11 11 11 11 11 10 10 10 10 11 13 14 16 17 17 17 17 18 19 18
13 12 12 13 13 13 13 12 12 13 13 13 13 12 12 13 14 13 11 10 7 4 3 3 2 3 4 5 6 7 8 8 8 8 10 11 12 13 14 13 14 14 13 15 20 22 20 20 21 19 16 16 17 17 17 15 13 12 11 10 10 10 10 9 9 9 8 9 10 12 12 12 11 10 10 9 10 12 13 14 15 16 18 20 23 25 23
14 12 11 12 14 16 15 14 14 15 13 12 13 13 14 16 17 15 14 13 13 11 9 8 7 8 8 8 8 9 9 9 9 9 9 10 12 14 14 14 16 16 14 15 21 23 20 20 22 20 16 15 15 16 16 14 12 10 10 9 9 9 10 10 10 9 9 9 11 12 12 13 13 13 11 11 12 13 13 14 15 16 17 20 24 25 23
14 12 11 11 13 16 16 16 16 17 16 15 15 16 17 18 19 17 16 15 15 14 13 12 11 10 11 11 11 11 10 10 10 10 10 10 13 16 17 15 16 16 14 14 18 21 19 19 20 19 16 15 15 15 14 13 11 9 8 9 9 9 9 9 10 10 10 10 11 12 12 13 14 14 13 13 13 13 13 14 14 14 15 17 19 21 19
12 13 13 13 13 14 16 16 16 17 17 17 18 19 18 17 18 19 19 18 17 15 14 14 13 13 13 13 13 13 13 12 11 11 12 12 13 16 17 16 15 14 13 13 16 17 17 17 17 16 15 15 15 14 12 10 10 10 9 9 9 9 8 9 9 10 10 10 11 12 12 13 13 13 13 14 14 14 13 13 13 13 14 15 16 17 18
10 12 13 13 13 14 15 16 16 17 17 17 17 19 19 18 19 20 21 21 20 18 16 16 16 16 15 15 15 15 15 14 14 13 13 13 14 15 17 18 18 16 13 13 15 15 14 14 14 14 15 15 14 13 12 10 9 10 10 10 10 10 9 10 10 10 10 10 10 11 12 13 13 13 13 13 14 14 14 15 15 15 15 14 14 15 15
8 11 12 12 13 14 14 15 16 17 18 18 18 18 19 19 19 20 20 20 21 21 20 18 17 17 17 17 16 16 17 17 17 16 15 15 15 14 15 18 21 19 16 15 16 14 13 14 15 15 16 16 14 14 13 10 8 9 10 11 11 11 11 11 11 12 12 11 11 12 12 12 13 13 13 13 13 12 13 15 16 16 16 17 17 18 18
7 10 11 11 12 14 14 15 16 17 18 18 19 19 19 20 20 19 19 19 20 22 23 22 20 19 18 18 18 18 18 19 19 20 19 18 16 14 13 16 20 19 16 16 17 16 16 17 16 15 16 17 16 16 15 14 12 12 13 14 14 14 14 14 14 14 14 13 12 12 12 12 12 13 13 13 13 13 13 13 14 14 14 15 17 18 18
6 8 9 10 12 13 13 14 15 16 17 18 18 18 19 20 20 19 19 19 20 22 22 22 21 20 19 19 19 19 19 19 20 22 23 22 20 16 14 16 19 19 17 17 19 19 20 20 18 15 15 17 17 18 19 19 18 18 18 18 18 18 18 18 18 18 19 18 16 14 13 13 13 13 13 13 13 13 12 12 13 15 15 16 16 18 19
4 6 8 9 10 11 12 13 14 15 16 17 18 18 19 19 19 19 19 20 20 20 20 20 21 20 20 20 19 19 18 18 19 20 22 23 24 22 19 17 19 20 20 20 21 21 21 20 19 17 16 17 18 21 23 24 23 22 22 21 22 22 22 22 21 21 21 22 20 18 17 16 15 15 15 15 15 14 14 14 15 16 17 17 17 17 19
6 4 6 8 9 10 10 12 13 14 15 16 17 18 18 18 18 19 19 19 20 20 19 19 19 19 20 20 19 19 19 19 18 18 18 19 21 22 22 20 20 21 23 25 25 24 23 21 19 18 18 19 20 22 25 25 24 23 24 24 24 25 25 26 25 24 23 23 23 22 20 18 17 16 16 15 15 15 15 15 15 15 15 16 15 15 16
6 3 4 7 8 8 9 11 11 12 13 14 16 17 18 18 18 18 18 18 19 19 19 19 19 18 18 18 18 18 19 20 20 19 17 16 16 18 20 21 21 22 24 27 30 30 27 24 22 21 21 21 22 23 24 24 24 24 25 25 25 26 27 27 26 25 26 26 25 24 23 22 21 20 19 18 17 16 16 15 15 16 17 17 16 16 17
6 4 4 4 5 6 8 9 9 10 11 12 14 16 17 17 17 17 17 17 18 18 18 18 19 18 17 16 15 15 16 18 19 20 19 18 17 18 19 21 23 24 25 27 30 32 30 29 28 27 24 23 23 24 24 24 24 24 24 24 24 25 26 26 25 25 25 25 25 24 24 24 24 23 22 21 20 20 18 18 18 18 18 18 17 17 18
5 4 3 3 3 4 5 6 7 8 10 10 11 13 14 15 16 16 16 16 16 17 17 17 18 18 17 17 16 15 15 15 16 18 19 19 18 18 19 20 22 24 25 27 30 32 31 31 32 32 31 30 29 26 24 23 24 24 24 24 24 24 24 24 23 23 23 22 22 22 22 22 22 21 22 22 21 20 20 20 19 19 19 19 19 19 19
5 4 4 4 3 2 2 2 4 5 6 8 9 11 13 13 14 14 15 15 15 16 16 16 17 17 18 17 17 16 15 14 14 15 17 18 17 18 19 21 22 24 26 27 30 33 34 34 32 31 32 33 34 32 28 26 26 26 26 26 26 25 25 25 24 23 23 22 22 22 22 22 22 21 21 21 20 19 19 19 18 17 17 18 18 18 17
4 4 3 3 3 3 3 2 2 3 5 7 9 10 11 12 12 13 14 14 14 14 15 15 15 15 16 17 17 17 16 15 15 16 17 18 18 18 20 22 25 28 30 30 30 33 37 38 37 34 31 30 31 32 32 30 29 28 27 27 27 27 27 27 26 25 24 23 23 22 22 22 21 20 20 19 19 18 18 18 18 17 16 16 16 16 16
4 3 2 2 2 4 5 5 5 4 5 6 8 9 10 11 12 12 13 13 13 13 14 14 14 14 14 15 16 16 16 16 17 17 17 18 19 20 20 21 24 28 32 33 32 33 34 36 37 38 37 33 30 29 29 30 29 28 27 26 26 26 27 27 26 25 24 23 22 22 21 21 20 20 19 19 18 17 17 16 16 15 15 15 14 14 14
4 3 2 2 3 5 7 8 8 7 4 5 6 8 9 10 11 11 12 12 12 12 13 13 13 13 13 13 13 14 15 15 16 17 17 18 19 20 21 22 22 24 26 29 30 31 32 32 32 34 36 36 34 30 29 29 29 28 27 26 25 24 24 24 24 24 23 22 21 21 20 20 19 19 18 17 17 16 15 15 14 14 14 13 13 13 12
4 3 2 3 5 6 6 7 6 7 5 4 6 7 8 9 10 10 11 11 11 11 11 12 12 12 12 11 12 13 14 14 15 16 17 17 17 18 20 21 21 21 22 23 25 27 28 30 30 30 31 32 32 31 30 29 28 28 27 25 25 24 24 23 22 22 21 20 19 19 19 18 18 17 17 16 16 15 15 14 14 14 13 13 12 12 11
Wind_Direction
274 279 282 283 279 274 275 276 268 251 230 222 224 228 230 231 241 244 243 256 252 245 255 279 332 341 325 327 335 329 323 322 329 330 296 266 243 206 192 191 192 194 193 190 189 189 189 190 191 191 191 191 191 190 190 190 189 188 186 186 187 187 189 190 189 188 189 190 192 194 195 196 198 200 200 200 201 202 203 205 207 209 210 210 209 210 211
280 280 276 272 268 266 266 266 263 259 249 235 229 230 233 235 243 249 266 292 282 257 274 312 327 325 322 324 325 320 319 329 334 324 306 293 286 260 211 198 196 197 196 194 192 190 190 192 193 192 191 190 190 189 189 189 189 188 186 185 186 187 189 190 188 186 186 187 190 191 193 194 195 197 198 198 199 201 203 205 207 208 209 211 211 211 210
280 279 276 266 257 257 261 262 260 256 249 239 233 230 229 233 238 239 245 265 268 262 304 331 318 308 310 310 314 321 331 341 337 324 317 312 311 315 298 240 215 207 202 199 195 192 192 193 194 194 192 190 189 188 188 189 189 187 185 185 186 187 188 187 185 183 184 186 188 190 192 192 193 194 196 197 198 200 203 205 206 207 208 210 212 213 212
274 274 270 260 253 252 253 254 253 247 242 236 230 227 229 232 231 225 225 234 247 270 323 334 313 298 294 291 304 324 335 341 338 327 323 321 318 318 316 304 273 238 219 206 197 196 196 194 194 194 192 189 189 188 188 189 189 187 186 186 185 185 185 183 182 182 183 185 187 189 190 191 191 193 194 196 198 200 202 204 204 206 208 209 211 214 214
272 271 265 257 253 249 245 244 242 238 236 236 229 218 214 234 230 223 225 229 263 326 333 329 321 313 300 294 306 323 329 333 331 324 320 319 318 317 313 308 294 270 249 223 205 200 197 194 195 195 192 190 189 189 187 186 186 187 187 186 185 184 183 182 182 182 183 185 187 188 189 190 190 192 194 196 198 200 202 204 204 206 208 209 211 213 215
270 273 270 259 244 238 237 243 239 231 226 226 225 206 168 176 227 249 268 289 328 337 325 317 317 312 305 303 300 303 319 331 326 321 319 316 314 312 308 303 297 284 268 246 222 207 199 196 196 194 191 190 189 185 182 182 184 185 185 185 184 183 183 182 182 183 183 185 188 188 189 189 190 192 195 198 199 201 202 204 204 207 208 209 211 212 214
266 276 271 251 239 231 220 258 252 241 229 213 180 117 106 153 244 281 284 287 309 319 309 308 309 297 292 294 287 283 304 328 322 316 314 312 309 307 304 302 299 290 272 253 234 216 205 199 194 191 190 188 185 181 179 180 182 183 183 184 184 183 184 184 183 183 184 186 188 188 188 190 192 195 198 199 201 202 204 206 207 208 209 210 211 212 214
256 261 247 244 248 233 198 205 225 244 223 184 143 112 95 68 309 281 280 283 301 309 306 308 306 290 284 283 272 270 297 324 320 313 309 308 306 304 302 300 295 286 270 253 238 223 210 200 192 190 189 186 182 180 178 178 179 181 180 182 184 184 185 186 185 185 186 187 188 189 190 192 195 198 200 201 202 203 205 208 209 209 210 212 212 214 216
244 250 246 252 262 247 219 205 202 231 213 174 159 150 111 53 6 329 316 308 316 322 321 320 310 292 280 269 252 265 348 336 322 316 309 304 302 301 300 297 291 281 266 251 237 222 207 198 193 190 187 183 179 178 177 176 178 179 180 182 184 185 186 187 187 187 188 189 189 190 192 194 197 199 200 201 201 202 204 208 209 209 210 212 214 216 217
235 249 253 253 254 243 210 164 148 284 308 312 244 185 141 85 8 17 6 347 347 344 334 327 316 287 258 245 230 21 2 342 330 324 312 301 300 300 299 297 292 277 257 242 229 213 199 194 191 186 182 179 175 174 175 176 177 179 181 184 185 186 188 189 187 187 189 189 190 191 193 196 199 199 200 200 201 202 204 208 210 210 210 212 214 216 218
233 238 241 242 246 234 128 69 11 353 1 339 256 214 195 97 20 25 12 5 6 354 336 331 324 278 236 237 338 1 346 334 328 321 309 303 302 301 300 301 296 279 250 230 219 204 193 189 184 178 176 174 172 172 174 176 178 181 186 188 188 188 189 188 188 188 189 190 190 192 194 197 199 199 200 201 202 203 206 209 211 211 212 213 216 217 219
235 236 235 241 245 227 48 355 332 338 344 282 220 214 203 61 32 24 19 19 14 357 343 348 2 2 293 305 333 334 327 325 322 314 310 311 308 304 307 308 302 284 244 216 206 196 190 186 179 174 173 173 172 174 175 178 183 187 189 189 189 189 188 187 187 187 188 190 191 194 195 196 198 199 200 202 203 203 206 209 211 213 214 215 217 219 220
230 234 235 248 250 280 10 338 328 338 306 220 203 204 115 61 44 33 28 24 18 4 357 7 19 3 333 318 318 319 319 320 318 316 322 327 319 316 319 318 311 287 230 206 203 195 187 180 175 173 173 173 173 174 175 181 189 191 188 186 186 187 186 186 187 188 189 191 192 194 195 195 196 199 201 203 204 204 207 209 211 213 215 216 220 222 222
224 225 233 253 252 13 0 335 328 342 283 211 181 63 64 60 43 41 36 24 18 5 358 1 354 335 328 325 324 323 322 319 316 321 337 345 338 333 331 330 329 306 236 212 205 194 182 176 174 173 173 173 173 173 178 186 189 187 183 182 183 184 185 186 188 189 190 191 192 194 195 194 196 199 201 204 205 205 207 209 210 212 214 216 220 224 224
221 219 222 239 244 5 352 332 326 358 330 274 14 7 85 66 34 30 31 20 10 356 350 350 343 335 334 334 334 331 326 324 325 332 346 354 351 347 343 344 351 341 265 220 206 193 183 179 178 176 174 174 173 177 183 186 183 179 179 180 181 182 183 185 187 188 189 189 190 193 194 194 195 197 199 202 204 203 206 208 209 212 216 218 222 226 228
220 216 208 240 291 341 345 340 5 53 47 40 4 350 60 60 28 16 14 7 2 354 348 345 340 339 339 340 341 335 325 327 337 342 349 354 353 352 353 359 5 358 277 218 206 197 189 184 182 180 179 177 177 182 183 179 175 176 177 178 179 180 182 183 185 187 188 188 190 192 192 191 193 195 196 197 199 200 203 207 211 216 219 220 223 227 229
261 255 257 312 319 328 338 346 17 46 47 38 13 2 15 20 7 2 350 348 351 347 345 346 344 345 346 344 341 334 325 329 341 346 349 353 354 354 359 8 14 14 334 184 180 183 179 178 180 182 181 180 179 180 176 171 171 174 174 175 178 179 180 182 184 185 186 188 190 191 190 190 192 194 194 195 196 198 201 208 214 217 218 219 220 223 227
311 299 270 273 302 318 318 306 355 48 5 13 8 357 347 339 336 330 327 337 342 339 343 348 344 344 347 345 339 334 330 334 343 349 351 353 355 356 358 5 15 24 42 124 132 129 139 157 172 180 185 185 179 173 169 168 170 171 171 174 177 178 180 182 184 185 187 189 190 191 191 192 194 195 195 196 197 198 201 208 213 215 216 217 217 220 223
324 308 252 286 308 311 296 249 215 274 293 326 345 338 326 319 314 310 316 329 334 337 345 347 341 343 350 348 341 335 334 337 346 352 355 354 355 357 358 3 16 30 38 51 85 106 113 128 151 165 176 180 175 168 167 169 170 170 171 174 177 180 182 184 185 188 189 190 191 192 193 195 197 198 199 199 199 198 201 205 208 210 213 215 216 217 220
288 265 283 318 313 296 251 213 233 292 309 321 326 322 317 313 306 303 308 316 323 334 343 343 341 345 350 349 343 338 337 341 347 353 355 355 358 2 2 4 15 30 36 41 53 70 81 92 111 124 134 150 163 166 167 171 175 175 176 179 182 184 185 186 188 191 193 193 193 193 195 197 199 200 201 202 203 202 202 203 204 207 210 213 215 216 217
273 258 298 332 327 283 201 219 308 317 319 316 313 310 310 309 305 304 308 314 320 327 333 338 342 345 347 347 343 339 339 345 350 352 351 355 5 11 8 3 7 19 30 39 47 54 58 65 80 92 95 110 144 160 165 172 178 180 181 183 185 186 187 189 192 193 193 195 196 196 195 196 198 200 200 200 203 206 206 206 209 212 214 214 215 218 221
300 324 337 339 327 287 277 311 318 318 317 312 308 307 307 305 305 306 307 310 316 321 326 332 341 346 347 345 343 342 343 348 351 353 354 358 7 13 13 9 8 12 20 31 40 45 48 55 67 74 71 71 86 115 152 179 186 185 181 182 186 188 189 191 193 193 192 195 197 199 199 195 192 192 194 196 198 202 205 206 210 216 221 220 219 222 224
322 335 333 326 311 294 296 306 311 313 313 309 305 304 303 302 304 303 301 303 308 313 318 325 338 349 347 343 343 345 346 348 353 359 2 3 4 9 13 14 12 9 12 20 29 35 38 44 54 61 62 60 60 64 75 153 186 185 180 179 185 189 190 190 191 191 194 195 193 196 202 199 185 183 190 194 197 203 207 205 204 211 219 226 227 225 222
317 324 325 318 305 295 296 303 307 307 306 304 303 301 300 300 300 298 297 297 295 298 306 319 336 346 345 344 347 347 345 350 357 1 3 4 7 14 19 18 15 11 9 13 20 25 29 37 43 48 53 52 48 50 53 54 133 174 177 179 185 189 191 190 188 189 195 197 193 196 202 200 191 193 197 192 190 202 213 214 206 206 214 223 228 228 225
332 330 326 317 305 303 309 311 312 317 319 314 306 300 298 298 296 295 297 292 281 283 295 312 329 340 343 346 349 347 344 351 1 4 2 3 9 18 21 19 16 14 12 14 18 18 21 32 40 41 42 39 37 41 45 38 43 121 160 169 175 181 183 182 183 189 195 196 194 199 202 200 201 207 208 206 201 195 198 210 215 214 217 222 228 233 234
341 339 335 326 312 328 340 337 333 333 327 317 308 303 300 297 293 292 294 287 278 280 290 307 324 336 342 345 348 346 344 351 4 10 8 6 9 14 15 14 15 16 16 20 23 19 15 25 41 45 39 31 30 35 39 33 30 46 105 139 145 153 165 172 177 183 187 189 193 199 203 204 206 209 212 215 210 186 177 194 206 210 222 228 230 235 237
353 354 352 348 342 345 349 347 338 331 326 322 321 317 305 299 299 297 291 284 279 280 287 302 317 329 338 343 345 347 349 354 3 11 13 11 11 11 10 11 14 16 16 20 26 25 20 23 35 42 36 27 27 33 37 36 36 39 57 108 125 125 143 166 176 177 178 182 187 189 191 195 201 205 207 206 194 177 186 192 167 135 122 136 189 217 222
5 4 2 358 346 340 340 341 340 339 339 338 333 324 308 298 294 285 284 284 277 267 270 296 319 329 334 337 340 346 352 354 356 3 8 9 10 9 9 11 15 15 13 16 23 27 26 26 29 31 26 19 20 26 31 36 42 42 41 56 124 145 154 171 183 183 179 174 170 172 177 184 191 191 187 184 176 170 171 153 127 118 115 109 108 119 139
7 4 1 357 346 341 344 352 358 0 357 347 339 335 325 302 283 269 275 283 267 244 244 297 328 330 327 328 336 345 350 348 347 351 356 1 5 7 9 12 16 14 11 16 23 26 27 26 26 24 17 11 13 19 26 32 38 40 37 36 37 42 51 70 168 171 155 136 138 157 167 172 175 171 165 162 157 146 136 127 122 123 122 117 113 111 112
1 1 0 357 354 356 3 6 6 7 2 350 344 349 356 328 287 271 280 287 258 237 237 311 326 327 324 324 331 338 339 338 341 344 345 351 359 2 4 11 19 17 10 12 20 25 26 26 25 21 14 8 9 15 20 25 31 35 40 41 39 38 39 35 33 108 125 118 130 151 157 158 163 164 156 148 140 133 130 130 129 128 131 131 126 119 117
357 2 6 5 3 5 9 10 9 7 2 352 348 353 2 358 317 271 263 265 210 187 37 359 331 322 317 315 319 327 331 333 335 336 338 344 354 358 0 9 20 20 10 10 16 21 24 25 25 20 13 9 8 11 14 18 24 29 36 41 40 43 49 46 41 72 121 130 138 145 146 150 154 148 140 138 136 134 135 137 137 137 139 138 133 130 130
358 2 7 9 8 7 8 10 8 4 0 357 355 355 357 0 357 301 244 229 186 168 152 314 304 297 296 298 304 312 320 325 331 336 339 344 351 356 0 5 11 13 12 13 18 19 20 22 21 16 12 11 11 11 11 12 17 23 30 35 38 43 47 43 41 65 98 109 118 123 120 125 135 135 134 136 136 135 137 139 141 142 142 139 137 138 140
2 5 8 9 8 7 5 4 4 3 1 359 360 359 359 2 6 1 259 214 200 190 187 209 259 281 294 301 306 314 322 326 333 344 350 348 349 354 357 358 1 7 12 15 18 19 19 19 16 12 11 10 11 13 13 11 11 17 22 26 34 44 43 35 33 44 56 59 67 81 91 100 114 123 127 132 135 135 134 133 133 133 132 129 130 136 142
8 10 12 11 10 8 4 360 2 7 6 2 3 5 6 10 15 20 28 43 99 193 190 198 241 276 316 338 346 351 355 357 358 0 358 354 352 355 357 355 355 3 14 19 17 14 12 11 9 9 11 11 8 10 13 13 12 14 17 19 26 34 37 37 38 44 50 54 59 66 72 80 91 102 110 120 128 130 128 126 126 125 120 113 115 125 134
11 14 16 17 17 16 11 5 6 11 13 10 9 8 8 12 20 27 31 33 34 44 63 76 73 62 55 43 31 23 20 20 19 11 3 359 0 2 3 3 3 6 15 21 16 8 3 2 2 4 10 15 12 7 5 9 15 19 18 20 26 30 33 42 50 53 56 62 66 66 68 72 77 82 89 101 109 114 116 116 116 116 113 110 111 115 118
12 14 17 18 19 20 20 16 12 14 18 18 15 15 17 19 22 28 36 37 37 41 53 60 60 59 59 54 47 39 31 25 24 20 16 20 25 24 22 19 15 12 14 15 10 5 359 358 359 1 7 17 18 9 1 2 10 15 18 25 33 35 38 45 52 57 60 65 71 74 78 83 86 83 81 87 93 97 101 103 104 107 109 110 111 111 109
11 16 18 20 22 24 25 22 17 17 20 23 23 25 27 24 21 23 32 41 45 48 53 56 58 58 58 56 53 48 39 33 33 34 35 43 46 41 36 30 22 17 16 10 3 0 357 356 359 3 9 17 18 10 4 5 8 8 17 35 40 40 45 51 53 57 61 65 71 78 82 86 87 85 84 86 88 90 93 96 97 98 100 104 106 106 103
6 16 21 24 27 28 28 27 24 22 22 24 27 30 31 29 26 27 31 37 44 50 56 61 62 62 59 57 54 50 44 40 42 45 47 52 53 47 40 34 28 23 17 8 2 2 1 0 3 8 13 18 19 12 9 18 25 21 24 41 48 48 55 62 63 64 66 67 72 79 83 86 87 85 84 87 89 90 91 93 93 93 94 97 101 102 100
5 18 20 23 30 33 31 30 30 29 28 29 31 32 32 32 33 34 34 35 38 43 50 57 61 62 61 59 56 52 47 45 46 49 52 55 58 54 45 37 31 27 22 16 15 14 10 11 18 22 22 24 26 20 15 22 33 31 31 44 56 60 65 70 71 71 71 71 74 79 84 88 89 86 86 89 92 92 92 93 93 93 92 93 96 99 99
7 15 14 18 30 36 35 33 34 34 34 35 36 37 37 36 36 36 35 34 36 40 45 50 54 56 57 58 58 55 53 50 49 50 52 54 55 54 47 36 30 26 24 24 27 25 21 22 31 35 31 30 33 33 30 30 37 40 42 50 58 62 66 69 70 68 66 67 71 75 79 84 87 87 88 91 92 92 94 96 96 95 94 95 97 99 100
10 13 14 22 32 35 36 38 39 38 37 37 37 39 41 43 42 40 37 34 35 39 42 46 49 51 53 56 58 58 58 58 55 53 54 53 52 51 48 39 33 29 29 32 34 34 34 35 36 38 39 38 40 43 46 49 50 51 53 56 60 64 66 66 66 64 62 59 59 64 69 75 80 83 86 88 87 86 90 94 95 96 97 98 99 100 100
15 13 19 29 35 35 35 39 41 40 39 37 35 36 41 45 47 46 42 39 38 39 39 40 42 44 46 50 53 53 54 58 61 60 58 56 53 52 51 46 41 41 45 47 45 44 44 44 41 43 49 52 52 54 58 60 58 57 59 59 59 62 65 66 66 67 67 65 62 60 62 68 74 77 79 80 80 81 85 88 89 90 92 93 97 100 103
24 18 24 32 36 35 35 38 41 41 41 40 37 36 39 42 45 47 47 45 42 40 36 35 37 39 41 44 47 45 43 47 56 62 64 61 58 56 55 52 49 50 54 56 53 49 47 47 48 53 61 65 66 68 69 67 63 61 63 62 60 60 61 63 63 64 66 67 66 64 63 64 67 71 74 76 78 79 82 83 85 88 89 90 93 96 99
53 34 21 28 34 34 35 37 39 38 39 41 41 40 41 41 42 45 48 49 48 46 41 36 35 37 41 43 43 39 34 35 43 53 60 62 60 57 56 56 56 57 60 62 60 56 51 50 55 60 64 66 68 71 71 69 65 64 66 67 66 64 63 61 60 61 62 63 64 64 65 64 63 63 67 70 73 74 75 76 78 81 84 85 86 87 89
73 52 9 15 23 26 29 33 33 32 35 40 43 43 43 43 43 44 47 50 51 51 48 44 39 37 39 43 45 43 39 38 41 46 51 54 55 54 55 57 59 60 62 65 66 62 58 57 60 64 65 66 68 69 69 68 68 69 70 70 70 70 68 66 65 64 65 65 65 66 68 69 68 67 66 67 68 68 70 71 73 76 78 79 79 80 82
62 51 18 3 4 13 21 25 24 23 27 36 42 43 43 43 43 44 46 49 51 52 52 51 48 43 39 39 42 46 48 47 45 46 50 56 58 56 57 61 63 62 63 66 67 65 62 60 62 64 65 66 68 68 67 67 69 69 68 67 68 69 70 70 70 69 69 69 69 69 69 70 71 71 70 69 70 70 71 71 71 72 74 76 76 77 78
43 51 43 17 6 13 17 14 15 18 23 29 35 39 41 41 43 44 46 49 51 53 52 52 53 53 49 44 41 43 49 54 52 48 49 55 59 59 59 61 63 63 63 64 67 68 66 63 62 63 65 67 68 68 66 66 68 68 66 65 65 68 70 71 72 71 71 70 70 69 69 68 68 68 69 68 68 69 70 71 70 69 70 72 74 74 75
22 29 32 27 20 8 347 355 9 17 22 28 31 31 32 36 41 44 45 46 48 50 51 51 51 53 55 54 52 48 48 52 55 53 52 54 57 58 57 59 64 68 67 65 65 69 71 69 65 62 62 65 67 67 65 64 64 66 67 66 65 65 66 66 67 67 67 67 66 65 65 65 65 65 65 65 64 64 67 69 70 70 71 72 72 72 72
11 10 17 27 16 341 327 352 18 4 6 26 35 28 23 28 37 40 41 43 45 45 47 48 49 50 53 56 59 59 57 57 58 58 58 59 61 61 60 60 64 69 71 68 66 69 73 74 71 66 61 59 60 62 64 63 61 60 62 63 63 62 63 63 64 64 64 64 63 63 63 63 63 64 64 65 64 64 65 67 67 69 71 73 74 74 74
9 356 350 15 15 343 341 9 40 30 4 19 37 34 24 25 33 36 35 37 42 46 46 45 47 49 52 53 54 58 62 65 65 64 63 63 64 66 66 66 67 70 71 71 69 69 70 72 72 71 69 65 58 55 57 60 59 58 57 58 59 60 61 62 62 61 60 60 61 61 62 62 63 64 65 65 65 65 65 66 66 66 67 69 71 73 73
16 17 16 33 35 7 355 14 50 69 51 20 32 38 30 25 30 34 33 32 36 43 47 48 47 49 51 52 52 53 59 65 69 71 70 68 68 69 71 72 73 73 72 72 71 70 69 68 69 70 72 72 69 63 60 61 62 62 62 60 58 58 59 60 59 58 58 57 58 59 59 61 63 64 65 65 66 66 65 65 64 63 63 64 66 68 70
29 35 39 55 66 52 14 9 50 91 98 57 38 39 33 26 29 34 36 36 36 40 47 53 54 51 51 53 56 56 58 62 67 71 73 73 72 72 71 72 74 75 74 74 74 73 72 72 71 71 71 72 73 72 71 70 67 65 64 64 63 63 64 64 64 62 60 59 59 59 59 60 61 62 63 63 64 64 63 63 63 64 65 64 64 65 66